Regional Weather Roundup
Issued by NWS

Home | Current Version | Previous Version | Graphics & Text | Print | Product List | Glossary Off
Versions: 1 2 3 4 5 6 7 8 9 10 11 12 13 14 15 16 17 18 19 20 21 22 23 24 25 26 27 28 29 30 31 32 33 34 35 36 37 38 39 40 41 42 43 44 45 46 47 48 49 50

000
ASUS43 KTOP 280559
RWRKS

WEATHER ROUNDUP FOR KANSAS
NATIONAL WEATHER SERVICE GOODLAND KS
100 AM CDT FRI AUG 28 2015

NOTE:  "FAIR" INDICATES FEW OR NO CLOUDS BELOW 12,000 FEET WITH NO
SIGNIFICANT WEATHER AND/OR OBSTRUCTIONS TO VISIBILITY.

KSZ001>006-013>018-027>032-041>047-280700-
NORTHWEST KANSAS

CITY           SKY/WX    TMP DP  RH WIND       PRES   REMARKS
GOODLAND       MOCLDY    69  60  73 NW9       30.01S
6HR MIN TEMP:  69; 6HR MAX TEMP:  89;

HAYS           FAIR      77  59  53 S24G30    29.88F
HILL CITY      FAIR      76  63  64 SW17      29.89R
6HR MIN TEMP:  76; 6HR MAX TEMP:  97; 6HR PCP:  0.04;

RUSSELL        LGT RAIN  77  68  73 VRB3      29.92R
6HR MIN TEMP:  74; 6HR MAX TEMP:  86; 6HR PCP:  0.08;

$$

KSZ061>065-074>080-084>089-280700-
SOUTHWEST KANSAS

CITY           SKY/WX    TMP DP  RH WIND       PRES   REMARKS
DODGE CITY     FAIR      69  63  81 SE16      29.96F
6HR MIN TEMP:  68; 6HR MAX TEMP:  87; 6HR PCP:  0.11;

ELKHART          N/A     70  61  73 N3          N/A
GARDEN CITY    FAIR      71  63  75 E5        29.95R
6HR MIN TEMP:  69; 6HR MAX TEMP:  80; 6HR PCP:  0.02;

GREAT BEND     MOCLDY    73  66  78 S16       29.93R
LIBERAL        FAIR      75  61  60 W9        29.99R
PRATT          LGT RAIN  73  68  83 S13       30.00S
$$

KSZ066>073-081>083-090>101-280700-
SOUTHEAST KANSAS

CITY           SKY/WX    TMP DP  RH WIND       PRES   REMARKS
CHANUTE        FAIR      68  64  87 SE8       29.99R
6HR MIN TEMP:  68; 6HR MAX TEMP:  74;

COFFEYVILLE    FAIR      66  64  93 S7        29.98F
6HR MIN TEMP:  66; 6HR MAX TEMP:  78;

HUTCHINSON     LGT RAIN  74  69  85 S15       29.96F
6HR MIN TEMP:  74; 6HR MAX TEMP:  84;

NEWTON         MOCLDY    72  63  73 S10       29.99F
WICHITA INTL   LGT RAIN  73  70  90 SE6       29.98R
6HR MIN TEMP:  73; 6HR MAX TEMP:  85; 6HR PCP:  0.05;

WICHITA JABRA  FAIR      74  66  76 SW12      29.98R
6HR MIN TEMP:  73; 6HR MAX TEMP:  84;

WICHITA MCCONL RAIN      72  66  83 W9        29.99R
WINFIELD       FAIR      73  66  78 S8        29.98R
6HR MIN TEMP:  73; 6HR MAX TEMP:  83;

$$

KSZ007>012-019>026-033>040-048>060-102>105-280700-
NORTHEAST KANSAS

CITY           SKY/WX    TMP DP  RH WIND       PRES   REMARKS
CONCORDIA      MOCLDY    75  66  73 S23G33    29.89R
6HR MIN TEMP:  71; 6HR MAX TEMP:  83; 6HR PCP:  0.26;

EMPORIA        FAIR      70  62  76 S14       29.95F
6HR MIN TEMP:  70; 6HR MAX TEMP:  77;

LAWRENCE       FAIR      69  66  90 E8        29.97F
6HR MIN TEMP:  69; 6HR MAX TEMP:  74;

MANHATTAN      LGT RAIN  72  69  90 SW12      29.94R
6HR MIN TEMP:  72; 6HR MAX TEMP:  79; 6HR PCP:  0.01;

OLATHE IND     FAIR      69  67  93 SE9       29.99F
6HR MIN TEMP:  69; 6HR MAX TEMP:  71;

OLATHE EXE     FAIR      68  66  93 SE8       29.99S
6HR MIN TEMP:  67; 6HR MAX TEMP:  70;

SALINA         MOCLDY    76  69  79 S17       29.91S
6HR MIN TEMP:  75; 6HR MAX TEMP:  86; 6HR PCP:  0.10;

TOPEKA BILLARD FAIR      70  67  90 E8        29.94F
6HR MIN TEMP:  70; 6HR MAX TEMP:  76;

TOPEKA FORBES  FAIR      72  64  76 S14       29.94F
6HR MIN TEMP:  71; 6HR MAX TEMP:  75;

$$



USA.gov is the U.S. government's official web portal to all federal, state and local government web resources and services.